User: anonymous   Login
Location: LDNL
(36.4545°S, 141.6685°E)
Time: 05:13:23
(UTC+10:00)
Language:

CAS-4B - Orbit

View from above orbital plane
View from above orbital plane
View from above satellite
View from above satellite

Ground track
Ground track

The orbit data is extracted from the following two-line orbital elements,

1 42759U 17034B   22145.39781441  .00005677  00000-0  33965-3 0  9997
2 42759  43.0169  99.7691 0007735 151.8194 356.4020 15.11747541272865
Epoch (UTC): 25 May 2022 09:32:51
Eccentricity: 0.0007735
inclination: 43.0169°
perigee height: 525 km
apogee height: 536 km
right ascension of ascending node: 99.7691°
argument of perigee: 151.8194°
revolutions per day: 15.11747541
mean anomaly at epoch: 356.4020°
orbit number at epoch: 27286

The dashed part of the orbit path shows where the satellite is in the earth's shadow,  

DLR